This is the latest recevied weather packets stored in our database for station/object S56VIL-11. If no packets are shown the sender has not sent any weather packets the latest 10 day(s).
| Time | Temp. | Humidity | Pressure | Rain* | Wind** | Luminosity | Snow |
|---|---|---|---|---|---|---|---|
| 1788602144 | 27.22° C | 59% | 1031.8 hPa | - | - | - | - |
| 1788601244 | 27.22° C | 59% | 1031.9 hPa | - | - | - | - |
| 1788600344 | 28.33° C | 58% | 1031.7 hPa | - | - | - | - |
| 1788599444 | 27.22° C | 58% | 1031.8 hPa | - | - | - | - |
| 1788598544 | 27.22° C | 59% | 1031.8 hPa | - | - | - | - |
| 1788597644 | 26.11° C | 59% | 1031.6 hPa | - | - | - | - |
| 1788596744 | 25.56° C | 60% | 1031.6 hPa | - | - | - | - |
| 1788595844 | 26.11° C | 59% | 1031.4 hPa | - | - | - | - |
| 1788594944 | 25° C | 60% | 1031.2 hPa | - | - | - | - |
| 1788594044 | 25° C | 60% | 1031.1 hPa | - | - | - | - |
| 1788592244 | 23.89° C | 59% | 1031 hPa | - | - | - | - |
| 1788591343 | 22.78° C | 60% | 1031 hPa | - | - | - | - |
| 1788590443 | 22.78° C | 60% | 1030.9 hPa | - | - | - | - |
| 1788589543 | 23.89° C | 59% | 1030.8 hPa | - | - | - | - |
| 1788588643 | 23.89° C | 59% | 1030.7 hPa | - | - | - | - |
| 1788587743 | 23.33° C | 59% | 1030.6 hPa | - | - | - | - |
| 1788586843 | 22.78° C | 60% | 1030.7 hPa | - | - | - | - |
| 1788585043 | 22.22° C | 61% | 1030.7 hPa | - | - | - | - |
| 1788583243 | 21.11° C | 62% | 1030.8 hPa | - | - | - | - |
| 1788582343 | 21.11° C | 62% | 1030.7 hPa | - | - | - | - |
| 1788581443 | 21.11° C | 62% | 1030.6 hPa | - | - | - | - |
| 1788580543 | 21.11° C | 62% | 1030.7 hPa | - | - | - | - |
| 1788578743 | 21.11° C | 61% | 1030.5 hPa | - | - | - | - |
| 1788577843 | 21.11° C | 61% | 1030.7 hPa | - | - | - | - |
| 1788576942 | 21.67° C | 61% | 1030.7 hPa | - | - | - | - |
* Rain since midnight (hover to see other rain measurements)
** Current wind speed in m/s (hover to see current wind gust speed)